User: anonymous   Login
Location: Ballingbuur
(53.0000°N, 5.7667°E)
Time: 23:54:25
(UTC+00:00)
Language:

Spot 2 - Orbit

View from above orbital plane
View from above orbital plane
View from above satellite
View from above satellite

Ground track
Ground track

The orbit data is extracted from the following two-line orbital elements,

1 20436U 90005A   21061.55491173  .00000210  00000-0  42454-4 0  9990
2 20436  98.7505  70.0960 0144787   5.8581 354.4272 14.66645044631536
Epoch (UTC): 02 March 2021 13:19:04
Eccentricity: 0.0144787
inclination: 98.7505°
perigee height: 570 km
apogee height: 774 km
right ascension of ascending node: 70.0960°
argument of perigee: 5.8581°
revolutions per day: 14.66645044
mean anomaly at epoch: 354.4272°
orbit number at epoch: 63153

The dashed part of the orbit path shows where the satellite is in the earth's shadow,  

DLR